Regional Weather Roundup
Issued by NWS Huntsville, AL

Home | Current Version | Previous Version | Text Only | Print | Product List | Glossary On
Versions: 1 2 3 4 5 6 7 8 9 10 11 12 13 14 15 16 17 18 19 20 21 22 23 24 25 26 27 28
000
ASUS44 KHUN 271910
RWRHUN

WEATHER ROUNDUP FOR THE TENNESSEE VALLEY
NATIONAL WEATHER SERVICE HUNTSVILLE AL
200 PM CDT FRI MAY 27 2016

ALZ001>004-272000-
NORTHWEST ALABAMA

CITY           SKY/WX    TMP DP  RH WIND       PRES   REMARKS
COURTLAND HCN    N/A     84 N/A N/A S13         N/A
RUSSELLVILLE     N/A     82 N/A N/A MISG        N/A
SHOALS AIRPORT PTSUNNY   85  59  41 S15G24    30.02F
SHOALS TVA RES   N/A     84 N/A N/A MISG        N/A
$$

ALZ005>007-016-272000-
NORTH CENTRAL ALABAMA

CITY           SKY/WX    TMP DP  RH WIND       PRES   REMARKS
CULLMAN AG STN   N/A     84 N/A N/A S7          N/A
DECATUR AP     PTSUNNY   85  63  47 S13       30.02F
HUNTSVILLE AP  PTSUNNY   88  61  40 S13       30.01F
HUN NWS/UAH      N/A     88  59  37 S8          N/A
MERIDIANVILLE  MOSUNNY   88  50  27 S14       30.02F
REDSTONE ARSN  PTSUNNY   86  62  44 S15       30.01F
VINEMONT AP    FAIR      82  62  51 S10G18    30.06F
$$

ALZ008>010-272000-
NORTHEAST ALABAMA

CITY           SKY/WX    TMP DP  RH WIND       PRES   REMARKS
ALBERTVILLE    MOSUNNY   84  70  61 SE12      30.03F
FORT PAYNE     MOSUNNY   84  57  39 S7        30.04F
SCOTTSBORO AP  MOSUNNY   86  64  48 SW9       30.03F
SCOTTSBORO HCN   N/A     88 N/A N/A MISG        N/A
VALLEY HEAD      N/A     84 N/A N/A MISG        N/A
$$

TNZ076-096-097-272000-
SOUTHEASTERN MIDDLE TENNESSEE

CITY           SKY/WX    TMP DP  RH WIND       PRES   REMARKS
TULLAHOMA      MOSUNNY   84  63  48 SW10      30.04F
WINCHESTER     MOSUNNY   88  63  42 S12       30.03F
$$

...SURROUNDING SITES...

CITY           SKY/WX    TMP DP  RH WIND       PRES   REMARKS
ATLANTA        PTSUNNY   84  58  40 E9        30.09F
ANNISTON       MOSUNNY   87  63  44 S9G17     30.04F
BIRMINGHAM     PTSUNNY   87  64  46 SE12G18   30.05F
CHATTANOOGA    PTSUNNY   88  63  43 S13G18    30.03F
DALTON         MOSUNNY   86  63  45 S7        30.05F
GADSDEN        MOSUNNY   88  66  48 SE12      30.03  HX  90
GOLDEN TRNGL   MOSUNNY   82  64  54 S14G21    29.98F
HALEYVILLE     PTSUNNY   80  64  58 S12       30.05F
JACKSON TN     CLOUDY    77  68  73 S6        29.95F
MEMPHIS        CLOUDY    80  67  64 S12       29.90F
NASHVILLE      PTSUNNY   89  60  37 SW14      30.00F
OXFORD MS      FAIR      81  66  61 SE16G22   29.94F
ROME           MOSUNNY   88  64  44 SE8       30.04F
SAVANNAH       SUNNY     81  66  61 S13       29.97F
TUPELO         CLOUDY    84  64  50 SE13      29.96
TUSCALOOSA     CLOUDY    85  64  49 S15       30.01F
$$

...GULF COAST WEATHER...

CITY           SKY/WX    TMP DP  RH WIND       PRES   REMARKS
GULFPORT       MOSUNNY   85  65  51 SE20      29.98F
PASCAGOULA     PTSUNNY   84  69  60 SE14G21   30.01F
MOBILE         CLOUDY    84  67  56 SE13      30.02F
GULF SHORES    CLOUDY    82  70  67 SE12G23   30.02F
PENSACOLA      PTSUNNY   84  69  60 SE12      30.01F
DESTIN         CLOUDY    84  71  65 SE10G17   30.02F
PANAMA CITY    MOSUNNY   83  70  65 S14       30.01
APPALACHICOLA  SUNNY     82  68  62 SE14      30.03F
$$





USA.gov is the U.S. government's official web portal to all federal, state and local government web resources and services.